Погода в Критове

Россия / Красноярский край     56°14′26″N   90°00′57″E
темп.,
°C
ветер,
м/с
пор.,
м/с
влажн.,
%
обл.,
%
осадки,
мм/ч
давл.,
гПа
погр.,
м
20 мая, пт
пт2001:00+17зюз91776100 0.6 10051000
04:00+15зюз71387100 0.3 1007851
07:00+15з71367100 0.4 10101009
10:00+19з8112944 0.0 10122200
13:00+21зюз8112796 0.0 10132726
16:00+22з7122613 0.0 10123363
19:00+20з693423 0.0 10122182
22:00+15юз224573 0.0 101324
21 мая, сб
сб2101:00+14ю224498 0.0 101215
04:00+13юз4115483 0.2 1011287
07:00+14юз51357100 0.2 10111022
10:00+17зюз61353100 0.1 10111699
13:00+20з91434100 0.1 10112361
16:00+20з8113082 0.0 10102127
19:00+19з5103775 0.0 10101897
22:00+14зюз225575 0.0 101117
22 мая, вс
вс2201:00+13ю22615 0.0 101013
04:00+12ю226514 0.0 100823
07:00+15ю016332 0.0 1008126
10:00+22зюз13464 0.0 1006605
13:00+26сз34345 0.0 10051944
16:00+27ссз443115 0.0 10042354
19:00+23св5739100 0.0 1005583
22:00+17всв61154100 0.0 1007437
23 мая, пн
пн2301:00+15в395697 0.0 1009297
04:00+12в36645 0.0 1010121
07:00+15вюв365916 0.0 1012232
10:00+21юз4552100 0.0 10131125
13:00+18з81066100 0.3 10171252
16:00+12зюз2973100 1.3 1021522
19:00+14з3750100 1.4 1022391
22:00+10юз22600 0.0 102317
24 мая, вт
вт2401:00+9ююз226514 0.0 102315
04:00+7ююв22704 0.0 102312
07:00+11юв2260100 0.0 1022115
10:00+17юв3437100 0.0 1021823
13:00+21в23285 0.0 10181228
16:00+23св22310 0.0 10171505
19:00+22ссв3439100 0.0 1016503
22:00+16св2244100 0.0 101719